Terminal Aerodrome Forecast
Issued by NWS

Home | Current Version | Previous Version | Text Only | Print | Product List | Glossary On
Versions: 1 2 3 4 5 6 7 8 9 10 11 12 13 14 15 16 17 18 19 20 21
000
FTUS46 KOTX 311138
TAFMWH
TAF
KMWH 311138Z 3112/0112 03006KT P6SM VCSH SCT060 OVC100
     FM311600 22008KT P6SM -RA BKN050 OVC100
     FM010100 19005KT P6SM SCT050 BKN120=

USA.gov is the U.S. government's official web portal to all federal, state and local government web resources and services.